www.pogodaiklimat.ru

Погода и климат >> Архив погоды >> Гана >> Yendi


ПОГОДА в Yendi

  • Прогноз погоды в Yendi
  • Монитор погоды в Yendi
  • Климат города

АРХИВ ПОГОДЫ в Yendi

Время (UTC), дата Ветер
(напр.,м/с)
 
Видим.   Явления Облачность Т
(С)
Тd
(С)
f
(%)
Тe
(С)
Тes
(С)
Комфортность P
(гПа)
Po
(гПа)
Тmin
(С)
Tmax
(С)
R
(мм)
R24
(мм)
S
(см)
12 17.04 ЮЗ 2 14 км 4/4 480 м
[Cu med, cong Ci sp]
+33.5 +24.5 59 +46 +60 опасность
перегрева
1012.6 1013.0
15 17.04 ЮЗ 1 14 км 5/5 480 м
[Cu med, cong]
+36.1 +23.7 49 +47 +54 опасность
перегрева
1009.3 1009.0
18 17.04 штиль 0 14 км 4/3 400 м
[Cb cap Ci sp]
+35.0 +23.6 52 +46 +46 опасность
перегрева
1009.0 1009.0 +36.6
03 18.04 ЮЗ 2 12 км ясно +28.0 +23.2 75 +38 +38 очень
душно
1011.0 1011.0
09 18.04 ЮЗ 2 12 км 5/1 360 м
[Cu Sc Ci sp]
+30.0 +24.0 70 +41 +51 опасность
перегрева
1013.9 1014.0
12 18.04 ЮЗ 2 12 км 8/8 480 м
[Cu med, cong]
+33.0 +23.9 59 +45 +49 опасность
перегрева
1012.7 1013.0
15 18.04 СЗ 1 14 км 8/8 480 м
[Cu med, cong Ci sp]
+36.4 +24.4 50 +48 +51 опасность
перегрева
1009.8 1010.0
18 18.04 СЗ 1 14 км 5/3 480 м
[Cb cap Ci sp]
+35.4 +22.9 49 +45 +45 опасность
перегрева
1009.6 1010.0 +35.6
15 19.04 З 2 16 км 6/6 500 м
[Cu med, cong Ci sp]
+32.3 +23.2 59 +43 +48 опасность
перегрева
1008.7 1009.0
03 20.04 ЮЗ 1 12 км 6/0
[Ac trans Cs]
+28.5 +21.8 67 +37 +37 очень
душно
1010.2 1010.0
06 20.04 ЮЗ 1 12 км 9/1 360 м
[Sc Ac trans]
+27.5 +22.6 75 +36 +36 очень
душно
1010.8 1011.0 +26.8
09 20.04 В 2 14 км 9/0
[Ac trans Cs]
+28.6 +23.7 75 +39 +47 очень
душно
1012.1 1012.0
12 20.04 ЮЗ 3 14 км 9/0
[Ac trans Cs]
+30.5 +24.0 68 +42 +56 опасность
перегрева
1011.8 1012.0
18 20.04 ЮЗ 2 12 км 9/0
[Cs]
+33.6 +25.2 62 +48 +48 опасность
перегрева
1007.4 1007.0 +34.8
21 20.04 ЮЗ 2 12 км 8/0
[Cs]
+29.0 +23.0 70 +39 +39 очень
душно
1010.4 1010.0
03 21.04 ЮЗ 1 12 км 5/0
[Ci sp]
+26.5 +22.3 78
06 21.04 Ю 1 12 км 8/0
[Ac trans Cs]
+25.7 +22.1 81 +33 +33 очень
душно
1010.5 1011.0 +24.9
09 21.04 ЮЗ 1 14 км 8/0
[Ac trans Cs]
+27.0 +22.0 74 +35 +46 очень
душно
1013.9 1014.0
12 21.04 ЮЗ 1 14 км 8/1 480 м
[Cu med, cong Cs]
+32.0 +22.0 56 +41 +61 опасность
перегрева
1011.5 1012.0
18 21.04 СЗ 1 2400 м 8/1 150 м
[Cu med, cong Cs]
+33.8 +22.4 51 +43 +43 опасность
перегрева
1008.5 1009.0 +35.5
21 21.04 ЮЗ 1 12 км 8/0
[Ac trans Cs]
+31.0 +22.4 60 +40 +40 очень
душно
1010.2 1010.0
00 22.04 ЮЗ 1 12 км 4/0
[Ac trans Ci sp]
+28.8 +23.6 74 +39 +39 очень
душно
1011.4 1011.0
03 22.04 ЮЗ 1 12 км 4/0
[Ci sp]
+27.5 +22.9 76 +37 +37 очень
душно
1009.5 1010.0
06 22.04 ЮЗ 2 12 км 5/0
[Ci sp]
+26.5 +23.5 84 +36 +36 очень
душно
1010.5 1011.0 +25.2
09 22.04 ЮЗ 3 14 км 5/0
[Ci sp]
+30.4 +23.6 67 +41 +51 опасность
перегрева
1011.7 1012.0
12 22.04 З 2 14 км 8/8 480 м
[Cu med, cong Ci sp]
+34.5 +23.5 53 +45 +50 опасность
перегрева
1010.8 1011.0
15 22.04 Ю 1 16 км 6/6 500 м
[Cu med, cong Ci sp]
+36.2 +22.9 46 +46 +51 опасность
перегрева
1007.5 1008.0
18 22.04 Ю 2 14 км 5/0
[Ac trans Ci sp]
+35.8 +22.4 46 +45 +45 опасность
перегрева
1007.2 1007.0 +37.2
00 23.04 Ю 2 12 км 5/0
[Ci sp]
+30.5 +23.4 66 +41 +41 опасность
перегрева
1010.2 1010.0
09 23.04 ЮЗ 3 14 км 4/0
[Ac trans Ci sp]
+30.5 +22.9 64 +40 +49 очень
душно
1012.2 1012.0
12 23.04 С 3 14 км 4/4 480 м
[Cu med, cong Ci sp]
+34.5 +23.4 53 +45 +57 опасность
перегрева
1010.6 1011.0
15 23.04 С 2 14 км 6/6 480 м
[Cu med, cong Ci sp]
+37.4 +23.0 44 +47 +52 опасность
перегрева
1006.9 1007.0
18 23.04 Ю 1 14 км 5/1 480 м
[Cb cap Ci sp]
+36.1 +22.4 45 +45 +45 опасность
перегрева
1006.8 1007.0 +37.7
21 23.04 ЮЗ 1 12 км зарница 4/1 900 м
[Cb cap Ac trans Ci sp]
+32.6 +23.6 59 +44 +44 опасность
перегрева
1010.1 1010.0
00 24.04 ЮЗ 2 14 км 5/0
[Ac trans Ci sp]
+30.9 +23.8 66 +42 +42 опасность
перегрева
1010.2 1010.0
06 24.04 Ю 2 10 км 8/0
[Ac trans Cs]
+28.0 +24.3 80 +39 +39 очень
душно
1010.5 1011.0 +27.1

 

Местоположение метеостанции Yendi (Гана): широта 9.45 долгота -0.02 высота над уровнем моря 197 м.

В архиве по умолчанию представлена погода в Yendi за последнюю неделю. Архивные данные за месяц целиком и за предыдущие месяцы, начиная с января 2011 года, Вы можете получить, выбрав интересующий диапазон дат из раскрывающегося списка и нажав кнопку "Ввод!".


*Определитесь, кто Вы:
робот инопланетянин человек

Внимание! Время в таблицах - всемирное. Для получения местного времени необходимо прибавить поправку, которая в Yendi равна 1 ч.

Смотрите также архив погоды в соседних городах и на ближайших метеорологических станциях:

Погода в Tamale (Гана) (91 км)
Погода в Mango (Того) (116 км)
Погода в Niamtougou (Того) (128 км)
Погода в Kara (Того) (131 км)
Погода в Sokode (Того) (139 км)
Погода в Dapaon (Того) (163 км)
Погода в Kete-Krachi (Гана) (181 км)
Погода в Natitingou (Бенин) (181 км)
Погода в Navrongo (Гана) (200 км)
Погода в Po (Буркина-Фасо) (226 км)

Пояснения к столбцам:

Ветер - указаны скорость ветра в м/с - средняя за 10 мин, порывы в срок и между сроками (в фигурных скобках) и направление, откуда дует ветер: С - северный, СВ - северо-восточный, В - восточный, ЮВ - юго-восточный, Ю - южный, ЮЗ - юго-западный, З - западный, СЗ - северо-западный.
Видимость - горизонтальная дальность видимости в метрах или километрах. При видимости от 1 до 10 км при отсутствии осадков обычно наблюдается дымка, при ухудшении видимости до 1 км и менее - туман. В сухую погоду видимость может ухудшаться дымом, пылью или мглою.
Явления - указаны атмосферные явления, наблюдавшиеся в срок или в последний час перед сроком; фигурными скобками обозначены явления, наблюдавшиеся между сроками (за 1-3 часа до срока); квадратными скобками обозначены град или гололедные отложения с указанием их диаметра в мм.
Облачность - указаны через наклонную черту общая и нижняя облачность в баллах и высота нижней границы облаков в метрах; квадратными скобками обозначены формы облаков: Ci - перистые, Cs - перисто-слоистые, Cc - перисто-кучевые, Ac - высококучевые, As - высокослоистые, Sc - слоисто-кучевые, Ns - слоисто-дождевые, Cu - кучевые, Cb - кучево-дождевые. Подробнее классификацию облаков см. в Атласе облаков (PDF).
T - Температура воздуха - температура, измеренная на высоте 2 м над землей.
Td - Температура точки росы - температура, при понижении до которой содержащийся в воздухе водяной пар достигнет насыщения.
f - Относительная влажность воздуха - влажноcть воздуха, измеренная на высоте 2 м над землей.
Te - Эффективная температура - температура, которую ощущает одетый по сезону человек в тени. Характеристика душности погоды. При расчете учитывается влияние влажности воздуха и скорости ветра на теплоощущения человека.
Tes - Эффективная температура на солнце - температура, которую ощущает человек, с поправкой на солнечный нагрев. Характеристика знойности погоды. Зависит от высоты солнца над горизонтом, облачности и скорости ветра. Ночью, в пасмурную погоду, а также при ветре 12 м/с и более поправка равна нулю.
P - Атмосферное давление - приведенное к уровню моря атмосферное давление.
Po - Атмосферное давление - измеренное на уровне метеостанции атмосферное давление.
Tmin - Минимальная температура - минимум температуры воздуха на высоте 2 м над землей.
Tmax - Максимальная температура - максимум температуры воздуха на высоте 2 м над землей.
R - Количество осадков - Количество выпавших осадков за период времени, мм. При наведении курсора мыши на число - период времени, за который выпало указанное количество осадков.
R24 - Количество осадков - Количество выпавших осадков за 24 часа, мм.
S - Снежный покров - Высота снежного покрова, см. При наведении курсора мыши на число - состояние снежного покрова и степень покрытия местности в баллах.